Terminal Aerodrome Forecast
Issued by NWS Greer, SC

Home | Current Version | Previous Version | Text Only | Print | Product List | Glossary On
Versions: 1 2 3 4 5 6 7 8 9 10 11 12 13 14 15 16 17 18 19 20 21 22 23 24 25 26 27 28 29 30 31 32 33 34 35 36 37 38 39 40 41 42 43
551
FTUS42 KGSP 071737
TAFCLT
TAF
KCLT 071737Z 0718/0818 02012G20KT P6SM BKN180
     FM072100 36008KT P6SM SCT170
     FM080000 33003KT P6SM FEW250
     FM080800 25003KT P6SM SCT140
     FM081600 20007KT P6SM SCT060 BKN140=

USA.gov is the U.S. government's official web portal to all federal, state and local government web resources and services.